Location: Unspecified
(58.9933°N, 5.6375°E)
Time: 18:58:44
(UTC+01:00)

Cosmos 2058 - Pass Details

Date: 24 January 2018
Orbit: 563 x 585 km, 82.5° (Epoch: 24 February)

Event Time Altitude Azimuth Distance (km) Brightness Sun altitude
Rises 21:32:07 0° 256° (WSW) 2,810 7.0 -36.6°
Reaches altitude 10° 21:35:34 10° 286° (WNW) 1,918 6.3 -37.0°
Maximum altitude 21:37:24 12° 312° (NW) 1,762 6.0 -37.3°
Enters shadow 21:37:36 12° 315° (NW) 1,764 6.0 -37.3°
